Volver al catálogo

FENGYUN 1C DEB

ActivoSSO
NORAD 30823·DEBRIS·🇨🇳 China

Lanzado May 10, 1999 desde Taiyuan Satellite Launch Center

Loading…

Próximos Pases (próximas 24 horas)

TLE

ActualizadoSource: Space-Track

Época: Sep 14, 2026, 08:50 UTC

1 30823U 99025AVH 26257.36855981  .00000171  00000-0  12702-3 0  9992
2 30823  98.8022  33.6346 0133592  34.5901 352.0311 14.02846047998981

Sigue FENGYUN 1C DEB en tiempo real con AllMySat

Download on the App Store